CW3847 La Orotava ES current weather conditions

sailwx.info

Wind from 322 at 3 knots gusting 8

Air temperature 17.8° C
Dewpoint 13.9° C

Last reported at 2016-May-05 11:45 UTC.
Time now 2016-May-05 12:20 UTC

Location: N 28°23' W 016°31'.
View on Google Maps.

See reports from other nearby stations

  
Tides and Currents Weather Stations Pressure Air Temp Water Temp Dewpoint Dewpoint Depression Visibility Wind Speed Wind Dir Waves Ship Positions
date/time (UTC)wind fromknots sea level pressurealtimeterstation pressurevisibilityair tempwater tempwave heightnotes
2016-May-05 11:45 322 3 gusting 8 17.8
2016-May-05 11:40 327 2 gusting 5 17.2
2016-May-05 11:35 321 1 gusting 4 17.2
2016-May-05 11:30 323 2 gusting 6 17.2
2016-May-05 11:25 329 3 gusting 7 17.2
2016-May-05 11:20 330 4 gusting 7 17.2
2016-May-05 11:15 320 3 gusting 7 17.8
2016-May-05 11:10 310 1 gusting 4 17.2
2016-May-05 11:05 306 1 gusting 3 17.2
2016-May-05 11:00 315 1 gusting 3 17.2
2016-May-05 10:55 335 1 gusting 5 17.2
2016-May-05 10:50 354 2 gusting 5 17.2
2016-May-05 10:45 006 1 gusting 5 17.8
2016-May-05 10:40 006 1 gusting 5 17.8
2016-May-05 10:35 012 0 gusting 2 17.8
2016-May-05 10:30 001 1 gusting 5 17.2
2016-May-05 10:25 347 3 gusting 7 17.8
2016-May-05 10:20 332 3 gusting 7 17.8
2016-May-05 10:15 322 3 gusting 7 17.8
2016-May-05 10:10 333 3 gusting 6 17.8
2016-May-05 10:05 356 2 gusting 5 17.8
2016-May-05 10:00 347 2 gusting 5 17.8
2016-May-05 09:55 320 2 gusting 5 18.3
2016-May-05 09:50 302 1 gusting 4 18.3
2016-May-05 09:45 300 0 gusting 2 17.8
2016-May-05 09:40 297 0 gusting 2 17.8
2016-May-05 09:35 295 0 gusting 2 17.8
2016-May-05 09:30 296 0 gusting 2 17.2
2016-May-05 09:25 298 0 gusting 2 17.2
2016-May-05 09:20 292 0 gusting 3 17.2
2016-May-05 09:15 273 0 gusting 3 17.2
2016-May-05 09:10 186 0 gusting 1 17.2
2016-May-05 09:05 186 0 gusting 1 16.7
2016-May-05 09:00 186 16.7
2016-May-05 08:55 186 16.7
2016-May-05 08:50 187 16.7
2016-May-05 08:45 186 0 gusting 2 16.7
2016-May-05 08:40 186 0 gusting 2 16.7
2016-May-05 08:35 186 0 gusting 3 16.7
2016-May-05 08:30 186 0 gusting 3 16.1
2016-May-05 08:25 186 0 gusting 2 16.1
2016-May-05 08:20 187 16.1
2016-May-05 08:15 186 16.1
2016-May-05 08:10 186 16.1
2016-May-05 08:05 186 16.1
2016-May-05 08:00 186 15.6
2016-May-05 07:55 187 15.6
2016-May-05 07:50 187 15.6
2016-May-05 07:45 186 0 gusting 2 15.6
2016-May-05 07:40 186 0 gusting 2 15.6
2016-May-05 07:35 186 0 gusting 2 15.6
2016-May-05 07:30 186 0 gusting 2 15.6
2016-May-05 07:25 186 0 gusting 2 15.6
2016-May-05 07:20 188 0 gusting 3 15.6
2016-May-05 07:15 199 0 gusting 3 15.6
2016-May-05 07:10 211 0 gusting 3 15.6
2016-May-05 07:05 212 1 gusting 3 15.0
2016-May-05 07:00 205 1 gusting 5 15.0
2016-May-05 06:55 196 1 gusting 5 15.0
2016-May-05 06:50 189 0 gusting 3 15.0
2016-May-05 06:45 188 1 gusting 3 15.0
2016-May-05 06:40 182 1 gusting 3 15.0
2016-May-05 06:35 174 1 gusting 4 15.0
2016-May-05 06:30 175 1 gusting 4 15.0
2016-May-05 06:25 175 1 gusting 4 15.0
2016-May-05 06:20 177 1 gusting 4 14.4
2016-May-05 06:15 190 1 gusting 4 14.4
2016-May-05 06:10 210 0 gusting 2 14.4
2016-May-05 06:05 210 0 gusting 3 14.4
2016-May-05 06:00 189 1 gusting 3 14.4
2016-May-05 05:55 168 1 gusting 5 14.4
2016-May-05 05:50 168 2 gusting 7 14.4
2016-May-05 05:45 171 2 gusting 7 14.4
2016-May-05 05:40 181 2 gusting 6 14.4
2016-May-05 05:35 176 2 gusting 6 14.4
2016-May-05 05:30 168 3 gusting 6 14.4
2016-May-05 05:25 168 4 gusting 7 14.4
2016-May-05 05:20 170 4 gusting 7 15.0
2016-May-05 05:15 169 3 gusting 6 15.0
2016-May-05 05:10 167 2 gusting 5 15.0
2016-May-05 05:05 162 2 gusting 5 15.0
2016-May-05 05:00 159 3 gusting 6 15.0
2016-May-05 04:55 158 3 gusting 6 15.0
2016-May-05 04:50 158 3 gusting 5 15.0
2016-May-05 04:45 162 2 gusting 5 15.0
2016-May-05 04:40 162 1 gusting 5 15.0
2016-May-05 04:35 162 1 gusting 4 15.0
2016-May-05 04:30 167 2 gusting 4 15.0
2016-May-05 04:20 169 1 gusting 4 15.0
2016-May-05 04:10 170 2 gusting 5 15.0
2016-May-05 04:05 169 2 gusting 5 15.0
2016-May-05 03:45 168 1 gusting 4 15.0
2016-May-05 03:40 177 1 gusting 4 15.0
2016-May-05 03:35 213 1 gusting 4 15.6
2016-May-05 03:20 328 1 gusting 4 15.6
2016-May-05 03:10 192 2 gusting 6 15.6
2016-May-05 03:05 173 3 gusting 6 15.6
2016-May-05 03:00 161 3 gusting 6 15.0
2016-May-05 02:55 158 4 gusting 6 15.6
2016-May-05 02:50 163 3 gusting 6 15.6
2016-May-05 02:45 185 1 gusting 5 15.6
2016-May-05 02:40 257 0 gusting 3 15.6
2016-May-05 02:35 266 0 gusting 2 15.6
2016-May-05 02:30 267 0 gusting 2 15.6
2016-May-05 02:25 198 0 gusting 4 15.6
2016-May-05 02:20 170 1 gusting 7 15.6
2016-May-05 02:15 163 3 gusting 7 15.6
2016-May-05 02:10 160 4 gusting 6 15.6
2016-May-05 02:05 157 5 gusting 6 15.6
2016-May-05 01:55 164 2 gusting 6 15.6
2016-May-05 01:40 171 1 gusting 4 15.0
2016-May-05 01:35 172 1 gusting 5 15.0
2016-May-05 01:30 170 2 gusting 6 15.0
2016-May-05 01:25 171 2 gusting 6 15.0
2016-May-05 01:20 172 2 gusting 5 15.0
2016-May-05 01:15 170 2 gusting 5 15.0
2016-May-05 01:10 174 2 gusting 5 15.0
2016-May-05 01:05 175 2 gusting 5 15.0
2016-May-05 01:00 174 2 gusting 5 15.0
2016-May-05 00:55 171 2 gusting 5 15.0
2016-May-05 00:50 174 2 gusting 5 15.0
2016-May-05 00:45 200 1 gusting 4 15.0
2016-May-05 00:40 226 1 gusting 6 15.0
2016-May-05 00:35 201 2 gusting 10 15.0
2016-May-05 00:30 178 4 gusting 10 15.0
2016-May-05 00:25 176 3 gusting 7 15.0
2016-May-05 00:20 171 4 gusting 8 15.0
2016-May-05 00:15 164 4 gusting 8 15.0
2016-May-05 00:10 161 6 gusting 10 15.0
2016-May-05 00:05 160 7 gusting 11 15.0
2016-May-05 00:00 159 6 gusting 11 15.0
2016-May-04 23:55 161 3 gusting 8 15.0
2016-May-04 23:50 165 2 gusting 5 15.0
2016-May-04 23:45 168 3 gusting 6 15.0
2016-May-04 23:40 171 3 gusting 6 15.0
2016-May-04 23:35 173 3 gusting 6 15.0
2016-May-04 23:30 174 3 gusting 6 15.0
2016-May-04 23:25 171 3 gusting 5 15.0
2016-May-04 23:20 171 3 gusting 5 15.0
2016-May-04 23:15 170 2 gusting 5 15.0
2016-May-04 23:10 169 2 gusting 5 15.6
2016-May-04 23:00 172 0 gusting 4 15.6
2016-May-04 22:55 173 0 gusting 4 15.6
2016-May-04 22:50 173 15.6
2016-May-04 22:45 173 15.6
2016-May-04 22:40 173 15.6
2016-May-04 22:35 184 0 gusting 5 15.6
2016-May-04 22:30 190 1 gusting 5 15.6
2016-May-04 22:25 191 0 gusting 3 15.6
2016-May-04 22:20 140 0 gusting 4 15.6
2016-May-04 22:15 145 1 gusting 4 15.6
2016-May-04 22:10 154 1 gusting 5 15.6
2016-May-04 22:05 171 2 gusting 5 16.1
2016-May-04 22:00 247 0 gusting 3 16.1
2016-May-04 21:55 285 0 gusting 2 16.1
2016-May-04 21:50 285 0 gusting 2 16.1
2016-May-04 21:45 285 16.1
2016-May-04 21:40 285 16.1
2016-May-04 21:35 286 16.1
2016-May-04 21:30 285 0 gusting 1 16.1
2016-May-04 21:25 285 0 gusting 2 16.1
2016-May-04 21:20 285 16.1
2016-May-04 21:15 285 0 gusting 2 16.1
2016-May-04 21:10 285 0 gusting 2 16.1
2016-May-04 21:05 285 0 gusting 2 16.1
2016-May-04 21:00 285 0 gusting 3 16.7
2016-May-04 20:55 285 0 gusting 3 16.7
2016-May-04 20:50 285 0 gusting 3 16.7
2016-May-04 20:45 285 1 gusting 3 16.7
2016-May-04 20:40 291 1 gusting 4 16.7
2016-May-04 20:35 296 1 gusting 4 16.7
2016-May-04 20:30 300 0 gusting 3 16.7
2016-May-04 20:25 301 0 gusting 3 16.7
2016-May-04 20:20 300 0 gusting 3 16.7
2016-May-04 20:15 301 1 gusting 3 16.7
2016-May-04 20:10 306 1 gusting 3 16.7
2016-May-04 20:05 310 1 gusting 4 16.7
2016-May-04 20:00 306 1 gusting 4 16.7
2016-May-04 19:55 295 1 gusting 5 16.7
2016-May-04 19:50 289 1 gusting 5 17.2
2016-May-04 19:45 281 1 gusting 5 17.2
2016-May-04 19:40 281 1 gusting 6 17.2
2016-May-04 19:30 279 2 gusting 7 17.2
2016-May-04 19:25 272 2 gusting 7 17.2
2016-May-04 19:15 307 2 gusting 7 17.2
2016-May-04 19:05 307 2 gusting 6 17.2
2016-May-04 19:00 302 2 gusting 6 17.2
2016-May-04 18:55 290 2 gusting 6 17.2
2016-May-04 18:45 304 2 gusting 6 17.2
2016-May-04 18:40 317 2 gusting 7 17.2
2016-May-04 18:35 311 3 gusting 7 17.2
2016-May-04 18:30 307 3 gusting 7 17.2
2016-May-04 18:25 307 3 gusting 8 17.2
2016-May-04 18:20 313 3 gusting 8 17.2
2016-May-04 18:15 315 3 gusting 7 17.2
2016-May-04 18:05 316 4 gusting 8 17.8
2016-May-04 18:00 317 3 gusting 8 17.8
2016-May-04 17:55 314 2 gusting 6 17.8
2016-May-04 17:50 309 3 gusting 8 17.8
2016-May-04 17:45 307 4 gusting 8 17.8
2016-May-04 17:40 306 2 gusting 7 18.3
2016-May-04 17:35 276 2 gusting 6 18.3
2016-May-04 17:30 269 2 gusting 6 18.3
2016-May-04 17:25 279 2 gusting 6 18.3
2016-May-04 17:20 295 1 gusting 6 18.3
2016-May-04 17:15 299 1 gusting 5 18.3
2016-May-04 17:10 296 1 gusting 5 18.3
2016-May-04 17:05 284 1 gusting 4 18.3
2016-May-04 17:00 282 1 gusting 6 18.3
2016-May-04 16:55 301 1 gusting 6 18.3
2016-May-04 16:50 303 2 gusting 6 18.3
2016-May-04 16:45 297 2 gusting 7 18.3
2016-May-04 16:40 297 2 gusting 7 17.8
2016-May-04 16:35 300 3 gusting 6 18.3
2016-May-04 16:30 300 2 gusting 6 18.3
2016-May-04 16:25 303 2 gusting 6 17.8
2016-May-04 16:15 294 2 gusting 6 17.8
2016-May-04 16:10 290 3 gusting 6 18.3
2016-May-04 16:05 289 3 gusting 6 18.3
2016-May-04 16:00 279 2 gusting 6 18.3
2016-May-04 15:50 306 2 gusting 7 17.8
2016-May-04 15:35 290 3 gusting 7 17.8
2016-May-04 15:30 300 3 gusting 7 17.8
2016-May-04 15:25 305 3 gusting 9 17.8
2016-May-04 15:20 311 4 gusting 9 17.8
2016-May-04 15:05 314 4 gusting 8 17.8
2016-May-04 15:00 302 3 gusting 7 17.8
2016-May-04 14:55 290 3 gusting 8 17.8
2016-May-04 14:50 310 4 gusting 10 17.8
2016-May-04 14:45 319 6 gusting 12 17.8
2016-May-04 14:40 313 6 gusting 12 17.8
2016-May-04 14:30 316 6 gusting 11 17.8
2016-May-04 14:25 313 6 gusting 11 18.3
2016-May-04 14:20 315 5 gusting 10 18.3
2016-May-04 14:15 319 4 gusting 9 18.9
2016-May-04 14:10 314 6 gusting 12 18.3
2016-May-04 14:05 310 5 gusting 12 18.3
2016-May-04 14:00 312 4 gusting 10 18.9
2016-May-04 13:50 320 5 gusting 10 18.9
2016-May-04 13:45 324 4 gusting 12 18.9
2016-May-04 13:40 323 5 gusting 12 18.9
2016-May-04 13:35 323 5 gusting 9 18.9
2016-May-04 13:25 317 4 gusting 10 18.9
2016-May-04 13:20 309 4 gusting 9 18.3
2016-May-04 13:15 324 4 gusting 7 18.3
2016-May-04 13:10 332 4 gusting 7 18.3
2016-May-04 13:00 311 1 gusting 6 18.3
2016-May-04 12:50 307 3 gusting 8 18.3
2016-May-04 12:45 316 4 gusting 8 18.3
2016-May-04 12:35 321 4 gusting 8 18.3
2016-May-04 12:25 313 2 gusting 11 18.3
2016-May-04 12:20 311 2 gusting 6 18.3
2016-May-04 12:10 320 5 gusting 9 18.3
2016-May-04 12:05 313 3 gusting 7 18.3
2016-May-04 12:00 309 3 gusting 7 18.3
2016-May-04 11:55 309 3 gusting 8 18.3
2016-May-04 11:50 306 3 gusting 8 18.3
2016-May-04 11:45 306 3 gusting 7 18.3
2016-May-04 11:40 305 3 gusting 7 18.3
2016-May-04 11:35 312 3 gusting 7 18.3
2016-May-04 11:30 308 2 gusting 7 17.8
2016-May-04 11:25 291 2 gusting 6 17.8
2016-May-04 11:20 289 2 gusting 6 17.8
2016-May-04 11:15 298 2 gusting 6 17.8
2016-May-04 11:05 314 4 gusting 9 17.8
2016-May-04 11:00 318 6 gusting 9 17.8
2016-May-04 10:55 315 4 gusting 9 17.8
2016-May-04 10:50 312 4 gusting 8 18.3
2016-May-04 10:40 308 3 gusting 8 18.3
2016-May-04 10:35 297 3 gusting 7 18.3
2016-May-04 10:25 302 3 gusting 10 17.8
2016-May-04 10:20 320 4 gusting 8 17.8
2016-May-04 10:15 326 4 gusting 8 17.8
2016-May-04 10:05 334 6 gusting 10 17.8
2016-May-04 10:00 333 6 gusting 10 18.3
2016-May-04 09:55 337 3 gusting 8 18.9
2016-May-04 09:50 255 1 gusting 6 19.4
2016-May-04 09:45 216 0 gusting 4 18.9
2016-May-04 09:40 221 0 gusting 3 18.9
2016-May-04 09:25 318 0 gusting 4 17.8
2016-May-04 09:20 311 1 gusting 6 17.8
2016-May-04 09:15 311 0 gusting 6 17.8
2016-May-04 09:10 332 0 gusting 3 17.2
2016-May-04 09:05 312 0 gusting 4 17.2
2016-May-04 09:00 290 1 gusting 5 17.2
2016-May-04 08:55 305 2 gusting 5 17.2
2016-May-04 08:50 320 1 gusting 4 16.7
2016-May-04 08:45 320 1 gusting 6 16.7
2016-May-04 08:40 325 1 gusting 6 16.7
2016-May-04 08:35 323 0 gusting 2 16.7
2016-May-04 08:30 335 1 gusting 4 16.7
2016-May-04 08:25 347 3 gusting 6 16.1
2016-May-04 08:20 350 3 gusting 6 16.1
2016-May-04 08:15 334 2 gusting 4 16.1
2016-May-04 08:10 313 0 gusting 4 16.1
2016-May-04 08:05 166 16.1
2016-May-04 07:55 166 2 gusting 5 15.0
2016-May-04 07:50 159 2 gusting 5 15.0
2016-May-04 07:45 153 2 gusting 6 14.4
2016-May-04 07:35 160 3 gusting 6 13.9
2016-May-04 07:30 160 4 gusting 6 13.3
2016-May-04 07:25 164 3 gusting 6 13.3
2016-May-04 07:20 168 3 gusting 6 13.3
2016-May-04 07:15 166 3 gusting 6 13.3
2016-May-04 07:10 168 4 gusting 7 13.3
2016-May-04 07:00 171 4 gusting 7 12.8
2016-May-04 06:55 170 4 gusting 7 12.8
2016-May-04 06:50 170 4 gusting 7 12.8
2016-May-04 06:45 170 4 gusting 7 12.8
2016-May-04 06:40 169 4 gusting 7 12.8
2016-May-04 06:35 169 4 gusting 7 12.8
2016-May-04 06:30 168 4 gusting 6 12.8
2016-May-04 06:25 167 4 gusting 6 12.8
2016-May-04 06:15 161 4 gusting 7 12.8
2016-May-04 06:05 163 3 gusting 6 12.8
2016-May-04 06:00 163 4 gusting 6 12.8
2016-May-04 05:55 162 4 gusting 6 12.8
2016-May-04 05:40 164 2 gusting 6 13.3
2016-May-04 05:35 159 3 gusting 6 13.3
2016-May-04 05:30 160 3 gusting 6 13.3
2016-May-04 05:25 169 2 gusting 6 13.3
2016-May-04 05:15 176 2 gusting 6 13.3
2016-May-04 05:10 173 4 gusting 7 13.3
2016-May-04 05:05 169 4 gusting 8 12.8
2016-May-04 05:00 166 5 gusting 8 12.8
2016-May-04 04:55 162 5 gusting 8 12.8
2016-May-04 04:50 163 4 gusting 7 13.3
2016-May-04 04:40 162 6 gusting 10 13.3
2016-May-04 04:35 161 6 gusting 10 13.3
2016-May-04 04:25 161 6 gusting 10 13.3
2016-May-04 04:20 163 6 gusting 11 13.3
2016-May-04 04:15 164 6 gusting 11 13.3
2016-May-04 04:00 166 5 gusting 10 13.3
2016-May-04 03:55 167 5 gusting 9 13.3
2016-May-04 03:30 164 3 gusting 6 13.3
2016-May-04 03:25 166 3 gusting 6 13.3
2016-May-04 03:20 165 3 gusting 6 13.3
2016-May-04 03:15 162 3 gusting 6 13.3
2016-May-04 03:10 163 4 gusting 6 13.3
2016-May-04 03:05 166 3 gusting 6 13.3
2016-May-04 03:00 169 3 gusting 5 13.3
2016-May-04 02:55 167 3 gusting 6 13.3
2016-May-04 02:50 169 3 gusting 6 13.3
2016-May-04 02:45 173 3 gusting 6 13.3
2016-May-04 02:40 172 3 gusting 6 13.3
2016-May-04 02:35 172 3 gusting 6 13.3
2016-May-04 02:25 173 3 gusting 6 13.3
2016-May-04 02:20 173 3 gusting 6 13.3
2016-May-04 02:15 171 2 gusting 6 13.3
2016-May-04 02:10 169 2 gusting 6 13.3
2016-May-04 02:05 169 3 gusting 6 13.3
2016-May-04 02:00 171 2 gusting 6 13.9
2016-May-04 01:55 168 3 gusting 6 13.9
2016-May-04 01:50 168 3 gusting 6 13.9
2016-May-04 01:45 172 2 gusting 5 13.9
2016-May-04 01:40 171 2 gusting 5 13.9
2016-May-04 01:35 168 2 gusting 5 14.4
2016-May-04 01:30 169 1 gusting 5 14.4
2016-May-04 01:20 172 2 gusting 5 13.9
2016-May-04 01:15 172 2 gusting 6 13.9
2016-May-04 01:00 171 2 gusting 5 13.9
2016-May-04 00:55 173 1 gusting 5 13.9
2016-May-04 00:50 170 1 gusting 4 13.9
2016-May-04 00:45 168 2 gusting 4 13.9
2016-May-04 00:35 167 2 gusting 6 14.4
2016-May-04 00:25 173 3 gusting 6 14.4
2016-May-04 00:20 170 2 gusting 6 14.4
2016-May-04 00:15 168 2 gusting 6 14.4
2016-May-04 00:10 170 2 gusting 5 14.4
2016-May-04 00:00 172 2 gusting 4 14.4
2016-May-03 23:55 168 1 gusting 4 14.4
2016-May-03 23:50 162 1 gusting 4 14.4
2016-May-03 23:45 167 1 gusting 5 14.4
2016-May-03 23:35 172 2 gusting 5 14.4
2016-May-03 23:25 174 2 gusting 6 14.4
2016-May-03 23:20 176 2 gusting 6 14.4
2016-May-03 23:15 173 1 gusting 4 14.4
2016-May-03 23:10 169 1 gusting 5 14.4
2016-May-03 23:05 171 2 gusting 5 14.4
2016-May-03 23:00 174 2 gusting 5 15.0
2016-May-03 22:55 176 1 gusting 4 15.0
2016-May-03 22:45 176 1 gusting 4 15.0
2016-May-03 22:40 178 0 gusting 2 15.6
2016-May-03 22:35 177 0 gusting 2 15.6
2016-May-03 22:30 178 0 gusting 2 15.6
2016-May-03 22:25 178 15.6
2016-May-03 22:15 178 15.6
2016-May-03 22:10 178 15.6
2016-May-03 22:05 15.6
2016-May-03 22:00 15.6
2016-May-03 21:55 178 15.6
2016-May-03 21:50 178 15.6
2016-May-03 21:45 178 15.6
2016-May-03 21:40 178 15.6
2016-May-03 21:30 177 0 gusting 1 15.6
2016-May-03 21:25 177 0 gusting 1 15.6
2016-May-03 21:20 177 0 gusting 2 15.6
2016-May-03 21:15 177 0 gusting 2 15.6
2016-May-03 21:10 178 0 gusting 2 15.6
2016-May-03 21:05 178 15.6
2016-May-03 21:00 178 15.6
2016-May-03 20:55 178 0 gusting 2 15.6
2016-May-03 20:50 178 0 gusting 2 15.6
2016-May-03 20:45 178 15.6
2016-May-03 20:40 15.6
2016-May-03 20:35 15.6
2016-May-03 20:30 178 0 gusting 2 15.6
2016-May-03 20:20 178 0 gusting 2 15.6
2016-May-03 20:10 187 1 gusting 3 15.6
2016-May-03 20:00 171 1 gusting 4 15.6
2016-May-03 19:55 148 0 gusting 4 15.6
2016-May-03 19:50 114 15.6
2016-May-03 19:45 113 0 gusting 2 15.6
2016-May-03 19:40 112 15.6
2016-May-03 19:35 112 0 gusting 2 15.6
2016-May-03 19:30 114 0 gusting 2 15.6
2016-May-03 19:20 120 16.1
2016-May-03 19:15 121 0 gusting 1 16.1
2016-May-03 19:10 120 0 gusting 1 16.1
2016-May-03 19:00 121 0 gusting 2 16.1
2016-May-03 18:55 127 0 gusting 2 16.1
2016-May-03 18:50 131 1 gusting 5 16.1
2016-May-03 18:45 110 1 gusting 5 16.1
2016-May-03 18:40 055 16.7
2016-May-03 18:35 347 16.7
2016-May-03 18:30 347 16.7
2016-May-03 18:25 348 0 gusting 3 16.7
2016-May-03 18:20 348 0 gusting 3 16.7
2016-May-03 18:15 347 0 gusting 2 16.7
2016-May-03 18:10 347 0 gusting 4 16.7
2016-May-03 18:05 339 1 gusting 4 16.7
2016-May-03 18:00 333 0 gusting 4 16.7
2016-May-03 17:55 328 0 gusting 3 16.7
2016-May-03 17:50 328 1 gusting 4 16.7
2016-May-03 17:45 329 1 gusting 4 16.7
2016-May-03 17:40 328 2 gusting 6 16.7
2016-May-03 17:30 321 1 gusting 5 16.7
2016-May-03 17:25 330 1 gusting 4 16.7
2016-May-03 17:20 339 1 gusting 4 16.7
2016-May-03 17:15 337 1 gusting 3 16.7
2016-May-03 17:10 320 0 gusting 3 16.7
2016-May-03 17:05 315 0 gusting 3 16.7
2016-May-03 17:00 314 1 gusting 4 16.7
2016-May-03 16:50 345 1 gusting 4 16.7
2016-May-03 16:40 004 3 gusting 6 16.7
2016-May-03 16:35 359 3 gusting 6 16.7
2016-May-03 16:30 007 2 gusting 6 16.7
2016-May-03 16:25 355 2 gusting 4 16.7
2016-May-03 16:20 347 2 gusting 6 16.7
2016-May-03 16:15 340 3 gusting 6 16.7
2016-May-03 16:10 326 4 gusting 7 17.2
2016-May-03 15:55 324 2 gusting 5 17.2
2016-May-03 15:50 318 2 gusting 6 17.2
2016-May-03 15:40 336 2 gusting 7 17.2
2016-May-03 15:30 325 2 gusting 6 17.2
2016-May-03 15:25 336 3 gusting 8 17.8
2016-May-03 15:20 344 4 gusting 9 17.8
2016-May-03 15:10 320 3 gusting 7 17.8
2016-May-03 15:05 312 2 gusting 6 17.8
2016-May-03 15:00 310 2 gusting 6 17.8
2016-May-03 14:55 315 3 gusting 7 17.8
2016-May-03 14:50 325 3 gusting 7 17.8
2016-May-03 14:45 345 3 gusting 8 17.8
2016-May-03 14:35 355 4 gusting 8 17.8
2016-May-03 14:25 351 4 gusting 9 18.3
2016-May-03 14:20 343 4 gusting 8 18.3
2016-May-03 14:15 321 4 gusting 8 18.3
2016-May-03 14:10 336 3 gusting 8 18.3
2016-May-03 14:05 352 3 gusting 8 18.3
2016-May-03 14:00 359 3 gusting 8 18.3
2016-May-03 13:55 359 2 gusting 7 17.8
2016-May-03 13:50 352 3 gusting 7 17.8
2016-May-03 13:45 358 3 gusting 7 17.8
2016-May-03 13:40 351 3 gusting 6 17.8
2016-May-03 13:35 352 2 gusting 7 17.8
2016-May-03 13:30 358 2 gusting 7 17.8
2016-May-03 13:25 352 2 gusting 7 17.8
2016-May-03 13:20 353 2 gusting 7 17.8
2016-May-03 13:15 018 2 gusting 7 17.8
2016-May-03 13:10 012 3 gusting 7 17.8
2016-May-03 13:05 355 3 gusting 9 17.8
2016-May-03 13:00 357 4 gusting 9 17.8
2016-May-03 12:55 002 3 gusting 8 17.2
2016-May-03 12:50 356 4 gusting 8 17.8
2016-May-03 12:45 357 4 gusting 9 17.8
2016-May-03 12:40 006 4 gusting 9 17.8
2016-May-03 12:35 357 4 gusting 7 17.2
2016-May-03 12:25 344 3 gusting 7 17.8
2016-May-03 12:20 339 3 gusting 7 17.8
2016-May-03 12:15 335 4 gusting 7 17.8
2016-May-03 12:10 341 4 gusting 7 17.8
2016-May-03 12:05 355 3 gusting 8 17.8
2016-May-03 12:00 347 3 gusting 8 17.8